www.pogodaiklimat.ru

Архив погоды в Павлодаре (Павлодарская область, Казахстан)

Время
(UTC), дата
15 27.09
18 27.09
21 27.09
00 28.09
03 28.09
06 28.09
09 28.09
12 28.09
15 28.09
18 28.09
21 28.09
00 29.09
03 29.09
06 29.09
09 29.09
12 29.09
15 29.09
18 29.09
21 29.09
00 30.09
03 30.09
06 30.09
09 30.09
12 30.09
15 30.09
18 30.09
21 30.09
00 1.10
03 1.10
06 1.10
09 1.10
12 1.10
15 1.10
18 1.10
21 1.10
00 2.10
03 2.10
06 2.10
09 2.10
12 2.10
15 2.10
18 2.10
21 2.10
00 3.10
03 3.10
06 3.10
09 3.10
12 3.10
15 3.10
18 3.10
21 3.10
00 4.10
03 4.10
06 4.10
09 4.10
Ветер
(напр.,м/с)
Видим. Явления Облачность Т
(С)
Тd
(С)
f
(%)
Тe
(С)
Тes
(С)
Комфортность P
(гПа)
Po
(гПа)
Тmin
(С)
Tmax
(С)
R
(мм)
R24
(мм)
S
(см)
З 2 20 км слаб. ливневой дождь 10/10 600 м
[Cb cap]
+9.1 +7.4 89 +7 +7 по сезону 1009.1 994.7 +14.6
З 3 20 км {ливн. дождь} 10/10 600 м
[Cb cap]
+5.6 +2.7 82 +2 +2 по сезону 1009.6 994.9 +14.6 1
З 3 20 км 10/10 600 м
[Cb cap]
+3.0 +1.2 88 -1 -1 прохладно 1010.3 995.5
СЗ 4 20 км 10/10 600 м
[Cb cap]
+1.9 +0.8 92 -3 -3 прохладно 1011.7 996.8
СЗ 4 10 км слаб. ливневой снег 10/10 600 м
[Cb cap]
+1.4 0.0 90 -4 -4 очень
холодно
1013.6 998.6
СЗ 4 10 км слаб. ливневой дождь 10/10 600 м
[Cb cap]
+1.6 -0.1 88 -4 -4 очень
холодно
1015.2 1000.3 +1.4 0.8
СЗ 4 10 км слаб. ливневой снег 10/10 600 м
[Cb cap]
+1.9 -0.3 85 -3 -3 очень
холодно
1016.4 1001.4
СЗ 2 20 км в посл. час ливневой снег 10/9 600 м
[Cb cap Ac und]
+2.5 -2.4 70 -0 -0 очень
холодно
1017.7 1002.8
З 3 10 км слаб. ливневой снег 10/10 600 м
[Cb cap]
+0.5 -0.9 90 -4 -4 очень
холодно
1018.7 1003.6 +2.6
СЗ 3 10 км слаб. ливневой снег 10/10 600 м
[Cb cap]
-0.4 -1.6 92 -5 -5 холодно 1018.6 1003.5 +2.6 0.0
З 4 10 км слаб. ливневой снег 9/9 600 м
[Cb cap]
-0.5 -3.3 81 -6 -6 очень
холодно
1018.6 1003.5
СЗ 5 20 км {ливн. снег} 9/9 600 м
[Cb cap]
-1.0 -3.2 85 -7 -7 холодно 1020.3 1005.2
СЗ 3 20 км в посл. час ливневой снег 10/10 600 м
[Cb cap]
-1.0 -3.9 81 -6 -6 очень
холодно
1022.2 1007.0 -1.6 0.3 <0.5
СЗ 5 20 км в посл. час ливневой снег 8/8 600 м
[Cb cap]
+0.6 -6.0 61 -5 -4 очень
холодно
1023.1 1008.0 -1.6 0.3
З 5 20 км слаб. ливневой снег 10/10 600 м
[Cb cap]
+0.4 -6.7 59 -5 -5 очень
холодно
1024.8 1009.6
З 2 20 км {ливн. снег} 10/10 600 м
[Cb cap]
-0.1 -7.0 60 -3 -3 очень
холодно
1026.3 1011.1
З 2 10 км слаб. ливневой снег 10/10 600 м
[Cb cap]
-0.7 -4.9 73 -4 -4 очень
холодно
1027.8 1012.5 +2.1
З 2 20 км {ливн. снег} 10/10 600 м
[Cb cap]
-0.6 -5.1 72 -4 -4 холодно 1028.2 1013.0 +2.1 0.0
СЗ 2 20 км 10/8 600 м
[Cb cap Ac und]
-1.0 -4.9 75 -5 -5 холодно 1028.3 1013.0
З 2 20 км 8/4 600 м
[Cb cap Ac trans]
-1.5 -4.6 79 -5 -5 холодно 1029.0 1013.7
З 3 10 км слаб. ливневой снег 10/10 600 м
[Cb cap]
-0.9 -4.1 79 -6 -6 очень
холодно
1030.7 1015.4
З 3 20 км {ливн. снег} 10/10 600 м
[Cb cap]
+1.9 -3.6 67 -2 -2 очень
холодно
1031.2 1016.1 -1.6 0.0
СЗ 4 20 км 9/9 600 м
[Cb cap]
+3.1 -6.6 49 -1 -1 очень
холодно
1031.5 1016.4
СЗ 4 20 км 8/8 600 м
[Cb cap]
+3.2 -7.8 44 -1 -1 очень
холодно
1032.6 1017.5
СЗ 2 20 км 10/10 600 м
[Cb cap]
+2.3 -7.4 49 -0 -0 холодно 1034.4 1019.2 +3.9
СЗ 3 20 км 3/0
[Ac trans]
+1.5 -6.0 57 -2 -2 холодно 1035.2 1019.9 +3.9 0.0
СЗ 3 20 км 10/8 600 м
[Cb cap Ac trans]
+2.0 -4.2 63 -2 -2 прохладно 1035.7 1020.5
СЗ 3 20 км 6/3 600 м
[Cb cap Ac trans]
0.0 -4.5 72 -4 -4 холодно 1037.0 1021.7
СЗ 3 20 км 4/0
[Ci fib]
+1.2 -3.8 69 -3 -2 очень
холодно
1038.9 1023.6
С 4 20 км 4/0
[Ac trans Ci fib]
+6.9 -6.7 37 +4 +8 холодно 1038.7 1023.7 -2.4
С 4 20 км 6/6 1000 м
[Cu hum]
+8.0 -8.5 30 +6 +7 прохладно 1038.1 1023.2
С 3 20 км 8/5 1000 м
[Cu hum Ac trans]
+6.1 -7.6 37 +4 +4 холодно 1038.4 1023.3
штиль 0 20 км ясно -1.4 -7.9 61 -2 -2 очень
холодно
1039.3 1023.8 +8.5
штиль 0 20 км ясно -5.1 -9.7 70 -6 -6 очень
холодно
1039.6 1023.9 +8.5
штиль 0 20 км ясно -6.4 -7.6 91 -7 -7 очень
холодно
1039.5 1023.7
СЗ 1 20 км 3/0
[Ci fib]
-6.1 -6.9 94 -9 -9 очень
холодно
1039.5 1023.8
С 1 20 км ясно +1.8 -4.8 62 +1 +2 прохладно 1039.8 1024.5
С 3 20 км 3/3 1000 м
[Cu hum]
+7.2 -6.6 37 +5 +8 прохладно 1039.1 1024.1 -7.8
С 3 20 км 3/3 1000 м
[Cu hum]
+9.1 -7.8 29 +7 +10 прохладно 1037.4 1022.5
В 1 20 км ясно +6.9 -8.1 33 +7 +7 прохладно 1036.5 1021.6
В 1 20 км ясно -1.1 -8.7 56 -3 -3 очень
холодно
1037.0 1021.5 +9.5
В 2 20 км ясно -1.9 -7.4 66 -5 -5 очень
холодно
1036.6 1021.1 +9.5
СВ 1 20 км ясно -5.3 -6.3 93 -8 -8 очень
холодно
1036.4 1020.8
СВ 1 20 км ясно -5.9 -8.2 84 -8 -8 очень
холодно
1036.3 1020.6
СВ 1 20 км ясно +1.3 -4.4 66 -0 +1 холодно 1035.8 1020.5
В 2 20 км ясно +8.0 -6.0 36 +7 +13 по сезону 1034.8 1019.9 -6.9
СВ 3 20 км ясно +10.0 -7.9 28 +9 +12 по сезону 1032.6 1017.9
С 1 20 км ясно +7.4 -8.6 31 +7 +7 прохладно 1032.3 1017.4
СВ 1 20 км ясно +0.6 -7.8 53 -1 -1 холодно 1033.5 1018.2 +10.2
СВ 1 20 км ясно -3.0 -8.1 68 -5 -5 очень
холодно
1033.7 1018.2 +10.2
С 1 20 км ясно -3.6 -5.1 89 -6 -6 очень
холодно
1034.1 1018.5
С 1 20 км ясно -4.3 -6.2 87 -7 -7 холодно 1034.9 1019.3
С 2 20 км ясно +1.1 -1.5 83 -2 -1 холодно 1035.7 1020.4
С 4 20 км ясно +9.1 -5.4 35 +7 +11 по сезону 1035.4 1020.6 -5.4
С 4 20 км 1/0
[Ci fib]
+10.8 -7.7 26 +9 +12 по сезону 1034.4 1019.7
Местоположение метеостанции Павлодар (Павлодарская область, Казахстан): широта 52.30 долгота 76.93 высота над уровнем моря 122 м.
В архиве по умолчанию представлена погода в Павлодаре за последнюю неделю. Архивные данные за месяц целиком и за предыдущие месяцы, начиная с января 2011 года, Вы можете получить, выбрав интересующий диапазон дат из раскрывающегося списка и нажав кнопку "Найти!".
*Определитесь, кто Вы:
Внимание! Время в таблицах - всемирное. Для получения местного времени необходимо прибавить поправку, которая равна 6 ч.
Смотрите также архив погоды в соседних городах и на ближайших метеорологических станциях:
Партнеры нашего сайта:      
Пояснения к столбцам:
  • Ветер - указаны скорость ветра в м/с - средняя за 10 мин, порывы в срок и между сроками (в фигурных скобках) и направление, откуда дует ветер: С - северный,
  • СВ - северо-восточный, В - восточный, ЮВ - юго-восточный, Ю - южный, ЮЗ - юго-западный, З - западный, СЗ - северо-западный.
  • Видимость - горизонтальная дальность видимости в метрах или километрах. При видимости от 1 до 10 км при отсутствии осадков обычно наблюдается дымка, при ухудшении видимости до 1 км и менее - туман. В сухую погоду видимость может ухудшаться дымом, пылью или мглою.
  • Явления - указаны атмосферные явления, наблюдавшиеся в срок или в последний час перед сроком; фигурными скобками обозначены явления, наблюдавшиеся между сроками (за 1-3 часа до срока); квадратными скобками обозначены град или гололедные отложения с указанием их диаметра в мм.
  • Облачность - указаны через наклонную черту общая и нижняя облачность в баллах и высота нижней границы облаков в метрах; квадратными скобками обозначены формы облаков: Ci - перистые, Cs - перисто-слоистые, Cc - перисто-кучевые, Ac - высококучевые, As - высокослоистые, Sc - слоисто-кучевые, Ns - слоисто-дождевые, Cu - кучевые, Cb - кучево-дождевые. Подробнее классификацию облаков см. в Атласе облаков (PDF).
  • T - Температура воздуха - температура, измеренная на высоте 2 м над землей.
  • Td - Температура точки росы - температура, при понижении до которой содержащийся в воздухе водяной пар достигнет насыщения.
  • f - Относительная влажность воздуха - влажноcть воздуха, измеренная на высоте 2 м над землей.
  • Te - Эффективная температура - температура, которую ощущает одетый по сезону человек в тени. Характеристика душности погоды. При расчете учитывается влияние влажности воздуха и скорости ветра на теплоощущения человека.
  • Tes - Эффективная температура на солнце - температура, которую ощущает человек, с поправкой на солнечный нагрев. Характеристика знойности погоды. Зависит от высоты солнца над горизонтом, облачности и скорости ветра. Ночью, в пасмурную погоду, а также при ветре 12 м/с и более поправка равна нулю.
  • P - Атмосферное давление - приведенное к уровню моря атмосферное давление.
  • Po - Атмосферное давление - измеренное на уровне метеостанции атмосферное давление.
  • Tmin - Минимальная температура - минимум температуры воздуха на высоте 2 м над землей.
  • Tmax - Максимальная температура - максимум температуры воздуха на высоте 2 м над землей.
  • R - Количество осадков - Количество выпавших осадков за период времени, мм. При наведении курсора мыши на число - период времени, за который выпало указанное количество осадков.
  • R24 - Количество осадков - Количество выпавших осадков за 24 часа, мм.
  • S - Снежный покров - Высота снежного покрова, см. При наведении курсора мыши на число - состояние снежного покрова и степень покрытия местности в баллах.